Location: Montreal
(45.5000°N, 73.5833°W)
Time: 04:15:24
(UTC-05:00)

Tiangong 2 - Pass Details

Date: 09 October 2017
Orbit: 386 x 390 km, 42.8° (Epoch: 12 December)

Event Time Altitude Azimuth Distance (km) Brightness Sun altitude
Exits shadow 06:32:12 - 237° (WSW) 1,919 4.1 -6.2°
Reaches altitude 10° 06:33:29 10° 231° (SW) 1,420 3.5 -6.0°
Maximum altitude 06:36:26 34° 164° (SSE) 664 2.5 -5.5°
Drops below altitude 10° 06:39:24 10° 97° (E) 1,426 5.9 -5.0°
Sets 06:41:35 0° 88° (E) 2,284 7.6 -4.6°
